Time,TemperatureF,DewpointF,PressureIn,WindDirection,WindDirectionDegrees,WindSpeedMPH,WindSpeedGustMPH,Humidity,HourlyPrecipIn,Conditions,Clouds,dailyrainin,SoftwareType,DateUTC
2017-09-20 00:02:00,65.6,65.0,30.07,NE,56,2.0,5.0,98,0.00,,,0.00,,2017-09-20 04:02:00,
2017-09-20 00:07:00,65.6,65.0,30.07,ENE,69,2.0,4.0,98,0.00,,,0.00,,2017-09-20 04:07:00,
2017-09-20 00:12:00,65.6,65.0,30.07,ENE,71,4.0,5.0,98,0.00,,,0.00,,2017-09-20 04:12:00,
2017-09-20 00:17:00,65.6,65.0,30.07,ENE,62,1.0,5.0,98,0.00,,,0.00,,2017-09-20 04:17:00,
2017-09-20 00:22:00,65.6,65.0,30.07,NE,44,4.0,5.0,98,0.00,,,0.00,,2017-09-20 04:22:00,
2017-09-20 00:27:00,65.6,65.0,30.07,ENE,73,3.0,5.0,98,0.00,,,0.00,,2017-09-20 04:27:00,
2017-09-20 00:32:00,65.6,65.0,30.06,ENE,69,3.0,4.0,98,0.00,,,0.00,,2017-09-20 04:32:00,
2017-09-20 00:37:00,65.6,65.0,30.06,East,83,4.0,6.0,98,0.00,,,0.00,,2017-09-20 04:37:00,
2017-09-20 00:42:00,65.6,65.0,30.06,NE,54,3.0,6.0,98,0.00,,,0.00,,2017-09-20 04:42:00,
2017-09-20 00:47:00,65.6,65.0,30.06,ENE,73,2.0,5.0,98,0.00,,,0.00,,2017-09-20 04:47:00,
2017-09-20 00:52:00,65.6,65.0,30.06,ENE,69,3.0,4.0,98,0.00,,,0.00,,2017-09-20 04:52:00,
2017-09-20 00:57:00,65.5,65.0,30.06,ESE,106,6.0,7.0,98,0.00,,,0.00,,2017-09-20 04:57:00,
2017-09-20 01:02:00,65.6,65.0,30.06,East,81,3.0,6.0,98,0.00,,,0.00,,2017-09-20 05:02:00,
2017-09-20 01:07:00,65.6,65.0,30.06,NE,39,2.0,6.0,98,0.00,,,0.00,,2017-09-20 05:07:00,
2017-09-20 01:12:00,65.6,65.0,30.06,ENE,67,3.0,6.0,98,0.00,,,0.00,,2017-09-20 05:12:00,
2017-09-20 01:17:00,65.6,65.0,30.06,East,101,1.0,5.0,98,0.00,,,0.00,,2017-09-20 05:17:00,
2017-09-20 01:22:00,65.5,65.0,30.06,East,81,1.0,7.0,98,0.00,,,0.00,,2017-09-20 05:22:00,
2017-09-20 01:27:00,65.5,65.0,30.06,ENE,77,1.0,5.0,98,0.00,,,0.00,,2017-09-20 05:27:00,
2017-09-20 01:32:00,65.5,65.0,30.06,NNE,29,1.0,5.0,98,0.00,,,0.00,,2017-09-20 05:32:00,
2017-09-20 01:37:00,65.5,65.0,30.06,NNE,24,3.0,5.0,98,0.00,,,0.00,,2017-09-20 05:37:00,
2017-09-20 01:42:00,65.5,65.0,30.06,NNE,24,3.0,5.0,98,0.00,,,0.00,,2017-09-20 05:42:00,
2017-09-20 01:47:00,65.5,65.0,30.05,NNE,27,4.0,5.0,98,0.00,,,0.00,,2017-09-20 05:47:00,
2017-09-20 01:52:00,65.5,65.0,30.05,NE,41,3.0,5.0,98,0.00,,,0.00,,2017-09-20 05:52:00,
2017-09-20 01:57:00,65.5,65.0,30.05,NE,48,2.0,4.0,98,0.00,,,0.00,,2017-09-20 05:57:00,
2017-09-20 02:02:00,65.5,65.0,30.05,NE,49,2.0,4.0,98,0.00,,,0.00,,2017-09-20 06:02:00,
2017-09-20 02:07:00,65.5,65.0,30.05,NE,39,2.0,5.0,98,0.00,,,0.00,,2017-09-20 06:07:00,
2017-09-20 02:12:00,65.5,65.0,30.05,NNE,19,2.0,5.0,98,0.00,,,0.00,,2017-09-20 06:12:00,
2017-09-20 02:17:00,65.5,65.0,30.05,NE,49,2.0,4.0,98,0.00,,,0.00,,2017-09-20 06:17:00,
2017-09-20 02:22:00,65.5,65.0,30.04,NE,49,1.0,5.0,98,0.00,,,0.00,,2017-09-20 06:22:00,
2017-09-20 02:27:00,65.5,65.0,30.04,NE,36,1.0,5.0,98,0.00,,,0.00,,2017-09-20 06:27:00,
2017-09-20 02:32:00,65.5,65.0,30.04,NE,49,2.0,6.0,98,0.00,,,0.00,,2017-09-20 06:32:00,
2017-09-20 02:37:00,65.5,65.0,30.04,North,6,2.0,6.0,99,0.00,,,0.00,,2017-09-20 06:37:00,
2017-09-20 02:42:00,65.5,65.0,30.04,NE,34,1.0,5.0,99,0.00,,,0.00,,2017-09-20 06:42:00,
2017-09-20 02:47:00,65.5,65.0,30.04,NNE,33,2.0,6.0,99,0.00,,,0.00,,2017-09-20 06:47:00,
2017-09-20 02:52:00,65.5,65.0,30.04,NE,37,2.0,6.0,99,0.00,,,0.00,,2017-09-20 06:52:00,
2017-09-20 02:57:00,65.6,65.0,30.04,ENE,64,4.0,7.0,99,0.00,,,0.00,,2017-09-20 06:57:00,
2017-09-20 03:02:00,65.6,65.0,30.04,NE,42,4.0,6.0,99,0.01,,,0.01,,2017-09-20 07:02:00,
2017-09-20 03:07:00,65.6,65.0,30.04,NE,34,3.0,6.0,99,0.01,,,0.01,,2017-09-20 07:07:00,
2017-09-20 03:12:00,65.6,65.0,30.04,NNE,25,3.0,5.0,99,0.01,,,0.01,,2017-09-20 07:12:00,
2017-09-20 03:17:00,65.6,65.0,30.04,NE,40,2.0,5.0,99,0.01,,,0.01,,2017-09-20 07:17:00,
2017-09-20 03:22:00,65.6,65.0,30.03,NE,41,3.0,4.0,99,0.01,,,0.01,,2017-09-20 07:22:00,
2017-09-20 03:27:00,65.6,65.0,30.03,NE,35,1.0,5.0,99,0.01,,,0.01,,2017-09-20 07:27:00,
2017-09-20 03:32:00,65.5,65.0,30.03,NNE,32,4.0,9.0,99,0.01,,,0.01,weatherlink.com 1.10,2017-09-20 07:32:00,
2017-09-20 03:37:00,65.5,65.0,30.03,NNE,27,3.0,9.0,99,0.01,,,0.01,,2017-09-20 07:37:00,
2017-09-20 03:42:00,65.5,65.0,30.03,NE,38,2.0,9.0,99,0.01,,,0.01,,2017-09-20 07:42:00,
2017-09-20 03:47:00,65.5,65.0,30.03,ENE,72,4.0,9.0,99,0.01,,,0.01,,2017-09-20 07:47:00,
2017-09-20 03:52:00,65.5,65.0,30.03,NNE,21,2.0,6.0,99,0.01,,,0.01,,2017-09-20 07:52:00,
2017-09-20 03:57:00,65.5,65.0,30.03,NE,43,3.0,8.0,99,0.00,,,0.01,,2017-09-20 07:57:00,
2017-09-20 04:02:00,65.5,65.0,30.03,NNE,25,3.0,9.0,99,0.00,,,0.01,,2017-09-20 08:02:00,
2017-09-20 04:07:00,65.4,65.0,30.02,ENE,61,0.0,9.0,99,0.00,,,0.01,,2017-09-20 08:07:00,
2017-09-20 04:12:00,65.4,65.0,30.02,ENE,66,4.0,5.0,99,0.00,,,0.01,,2017-09-20 08:12:00,
2017-09-20 04:17:00,65.4,65.0,30.02,ENE,61,3.0,6.0,98,0.00,,,0.01,,2017-09-20 08:17:00,
2017-09-20 04:22:00,65.3,65.0,30.02,ENE,66,4.0,6.0,98,0.00,,,0.01,,2017-09-20 08:22:00,
2017-09-20 04:27:00,65.3,65.0,30.02,NNE,16,1.0,8.0,99,0.00,,,0.01,,2017-09-20 08:27:00,
2017-09-20 04:32:00,65.3,65.0,30.02,NE,54,4.0,8.0,99,0.00,,,0.01,,2017-09-20 08:32:00,
2017-09-20 04:37:00,65.2,65.0,30.02,NNE,22,2.0,6.0,99,0.00,,,0.01,,2017-09-20 08:37:00,
2017-09-20 04:42:00,65.2,65.0,30.02,NE,37,1.0,9.0,99,0.00,,,0.01,,2017-09-20 08:42:00,
2017-09-20 04:47:00,65.2,65.0,30.02,NE,46,4.0,9.0,99,0.00,,,0.01,,2017-09-20 08:47:00,
2017-09-20 04:52:00,65.3,65.0,30.02,East,79,5.0,8.0,99,0.00,,,0.01,,2017-09-20 08:52:00,
2017-09-20 04:57:00,65.3,65.0,30.02,East,79,3.0,8.0,99,0.00,,,0.01,,2017-09-20 08:57:00,
2017-09-20 05:02:00,65.3,65.0,30.02,NE,48,3.0,6.0,99,0.00,,,0.01,,2017-09-20 09:02:00,
2017-09-20 05:07:00,65.3,65.0,30.02,ENE,66,4.0,8.0,99,0.00,,,0.01,,2017-09-20 09:07:00,
2017-09-20 05:12:00,65.3,65.0,30.02,NNE,27,3.0,8.0,99,0.00,,,0.01,,2017-09-20 09:12:00,
2017-09-20 05:17:00,65.3,65.0,30.01,NE,52,2.0,6.0,99,0.00,,,0.01,,2017-09-20 09:17:00,
2017-09-20 05:22:00,65.3,65.0,30.01,NE,53,3.0,6.0,99,0.00,,,0.01,,2017-09-20 09:22:00,
2017-09-20 05:27:00,65.3,65.0,30.01,ENE,73,5.0,8.0,99,0.00,,,0.01,,2017-09-20 09:27:00,
2017-09-20 05:32:00,65.3,65.0,30.01,NE,47,3.0,7.0,99,0.00,,,0.01,,2017-09-20 09:32:00,
2017-09-20 05:37:00,65.3,65.0,30.01,ENE,71,2.0,7.0,99,0.00,,,0.01,,2017-09-20 09:37:00,
2017-09-20 05:42:00,65.3,65.0,30.02,ENE,65,6.0,7.0,99,0.00,,,0.01,,2017-09-20 09:42:00,
2017-09-20 05:47:00,65.3,65.0,30.02,NE,54,3.0,7.0,99,0.00,,,0.01,,2017-09-20 09:47:00,
2017-09-20 05:52:00,65.3,65.0,30.01,ENE,68,2.0,7.0,99,0.00,,,0.01,,2017-09-20 09:52:00,
2017-09-20 05:57:00,65.3,65.0,30.02,NE,53,0.0,5.0,99,0.00,,,0.01,,2017-09-20 09:57:00,
2017-09-20 06:02:00,65.3,65.0,30.02,NE,52,2.0,5.0,99,0.00,,,0.01,,2017-09-20 10:02:00,
2017-09-20 06:07:00,65.3,65.0,30.02,ENE,58,4.0,5.0,99,0.00,,,0.01,,2017-09-20 10:07:00,
2017-09-20 06:12:00,65.4,65.0,30.02,NE,38,3.0,5.0,99,0.00,,,0.01,,2017-09-20 10:12:00,
2017-09-20 06:17:00,65.4,65.0,30.02,NE,52,2.0,6.0,99,0.00,,,0.01,,2017-09-20 10:17:00,
2017-09-20 06:22:00,65.4,65.0,30.02,ENE,64,3.0,5.0,99,0.00,,,0.01,,2017-09-20 10:22:00,
2017-09-20 06:27:00,65.4,65.0,30.02,NNE,14,5.0,5.0,99,0.00,,,0.01,,2017-09-20 10:27:00,
2017-09-20 06:32:00,65.5,65.0,30.02,NNE,31,1.0,8.0,99,0.00,,,0.01,,2017-09-20 10:32:00,
2017-09-20 06:37:00,65.5,65.0,30.02,NE,54,2.0,8.0,99,0.00,,,0.01,,2017-09-20 10:37:00,
2017-09-20 06:42:00,65.5,65.0,30.02,NE,38,5.0,7.0,99,0.00,,,0.01,,2017-09-20 10:42:00,
2017-09-20 06:47:00,65.6,65.0,30.02,NE,37,2.0,8.0,99,0.00,,,0.01,,2017-09-20 10:47:00,
2017-09-20 06:52:00,65.6,65.0,30.02,NE,45,2.0,8.0,99,0.00,,,0.01,,2017-09-20 10:52:00,
2017-09-20 06:57:00,65.6,65.0,30.02,East,85,2.0,6.0,99,0.00,,,0.01,,2017-09-20 10:57:00,
2017-09-20 07:02:00,65.6,65.0,30.02,East,99,4.0,6.0,99,0.00,,,0.01,,2017-09-20 11:02:00,
2017-09-20 07:07:00,65.6,65.0,30.02,NE,53,2.0,6.0,99,0.00,,,0.01,,2017-09-20 11:07:00,
2017-09-20 07:12:00,65.7,65.0,30.02,NE,40,4.0,5.0,99,0.00,,,0.01,,2017-09-20 11:12:00,
2017-09-20 07:17:00,65.7,65.0,30.02,NE,37,3.0,8.0,99,0.00,,,0.01,,2017-09-20 11:17:00,
2017-09-20 07:22:00,65.8,66.0,30.02,ENE,63,2.0,8.0,99,0.00,,,0.01,,2017-09-20 11:22:00,
2017-09-20 07:27:00,65.8,66.0,30.02,NE,49,4.0,9.0,99,0.00,,,0.01,,2017-09-20 11:27:00,
2017-09-20 07:32:00,65.9,66.0,30.02,NNE,17,2.0,9.0,99,0.00,,,0.01,,2017-09-20 11:32:00,
2017-09-20 07:37:00,65.9,66.0,30.02,NNE,33,3.0,7.0,99,0.00,,,0.01,,2017-09-20 11:37:00,